FENGYUN 1C DEB, 31082

Orbit data source: Space-Track

FENGYUN 1C DEB, 31082 is space debris in SSO originally from a launch on Mon, 10 May 1999 UTC launched from the Taiyaun Space Center, China (TSC). Fengyun 1C debris stems from the Chinese weather satellite Fengyun-1C, which was intentionally destroyed by a Chinese anti-satellite missile in 2007. This event dramatically increased the amount of space debris, with thousands of trackable fragments posing hazards to satellites and human spaceflight. The Fengyun 1C debris cloud has become a focal point in discussions about space sustainability and the need for international regulations to prevent the creation of new debris.

Loading next visibility...
Identifier
31082, 1999-025BGC
Orbit
SSO
Country
Flag of CNCN / PRC
Related business
Manufacturer
Unknown
Mission
Spacecraft
Bus & Motor
Unknown
Mass
Unknown
Launch date (UTC)
1999-05-10 (27 years ago)
Launch vehicle
Unknown
Launch site
Taiyaun Space Center, China (TSC)
Object type
Payload
Rocket body
Debris
Shape & HBR
Unknown shape, 0.1 m
Radar Cross Section
Small (<0.1 m²)

Expand to show TLE details & history
Last TLE update: 1 month ago

TLE from 1 month ago
0 FENGYUN 1C DEB
1 31082U 99025BGC 26115.76687546  .00000993  00000-0  53617-3 0  9999
2 31082  98.6711 124.1474 0069040 176.8047 183.3581 14.13660194982039
Epoch: 2026-04-25T18:24Z
TLE epoch observation values (Epoch: 2026-04-25T18:24:18.039Z)
Latitude
-0.00002°
Longitude
-5.70829°
Altitude
899.588 km
Speed
7.377 km/s
True Right ascension
08h 16m 35s
True Declination
0° 00' 00"
Sunlit
Object was in daylight at epoch
Visualization orbit readout
Latitude
Unknown
Longitude
Unknown
Altitude
Unknown
Speed
Unknown
Apparent Right ascension
Unknown
Apparent Declination
Unknown
Sunlit
N/A
Visualization observer readout
Local Sidereal Time
18:20:42
Azimuth
Unknown
Elevation
Unknown
Doppler factor
Unknown
Orbital elements
Apogee altitude
893.901 km
Perigee altitude
794.177 km
Semi-major axis
7,222.176 km
Eccentricity
0.0069
Inclination
98.6711°
RAAN
124.1474°
Arg. of periapsis
176.8047°
True anomaly
183.31215°
Mean anomaly
183.3581°
Eccentric anomaly
183.33509°
Mean motion
3.53623 °/min
Orbital period
101.8 mins
BSTAR
0.00053617
Loading maneuver chart data...
Computing Atmospheric mass density...

Documentation

Showing up to 5 results
|